Regional Weather Roundup
Issued by NWS

Home | Current Version | Previous Version | Graphics & Text | Print | Product List | Glossary On
Versions: 1 2 3 4 5 6 7 8 9 10 11 12 13 14 15 16 17 18 19 20 21 22 23 24 25 26 27 28 29 30 31 32 33 34 35 36 37 38 39 40 41 42 43 44 45 46 47 48 49 50
000
ASUS43 KMPX 250210
RWRMN
WEATHER ROUNDUP FOR MINNESOTA
NATIONAL WEATHER SERVICE TWIN CITIES/CHANHASSEN MN
900 PM CDT TUE MAY 24 2016


NOTE: "FAIR" INDICATES FEW OR NO CLOUDS BELOW 12,000 FEET WITH NO
SIGNIFICANT WEATHER AND/OR OBSTRUCTIONS TO VISIBILITY. N/A MEANS
CURRENT SKY AND/OR WEATHER CONDITIONS ARE NOT AVAILABLE.

MNZ060>063-068>070-250300-
   Twin Cities Metro

CITY           SKY/WX    TMP DP  RH WIND       PRES   REMARKS
TWIN CITIES    PTCLDY    79  48  33 E9        29.88R
ST PAUL        CLOUDY    75  54  47 SE3       29.89R
CRYSTAL        CLOUDY    74  52  46 E5        29.87S
BLAINE         PTCLDY    73  57  56 CALM      29.89R
EDEN PRAIRIE   PTCLDY    78  50  37 S9        29.88S
SOUTH ST PAUL  PTCLDY    77  51  39 SE3       29.89S
LAKE ELMO      FAIR      72  55  56 CALM      29.91R
$$
MNZ001>005-007-008-013>017-022>024-027-028-250300-
   Northwest Minnesota

CITY           SKY/WX    TMP DP  RH WIND       PRES   REMARKS
BEMIDJI        CLEAR     67  45  44 CALM      29.90R
HALLOCK        CLEAR     72  46  40 E8        29.86S
ROSEAU         CLEAR     68  52  56 E7        29.90S
WARROAD        CLEAR     64  57  77 E8        29.92R
THIEF RVR FALL CLEAR     72  48  43 N3        29.90S
CROOKSTON      CLEAR     73  48  40 CALM      29.88S
FOSSTON        CLEAR     68  52  56 N3        29.90R
DETROIT LAKES  CLEAR     72  46  40 NE7       29.89S
MOORHEAD       CLEAR     75  43  31 NE8       29.86R
PARK RAPIDS    CLEAR     71  52  50 SE10      29.90R
MAHNOMEN       FAIR      68  51  55 NE7       29.88R
$$
MNZ006-009>011-018-025>026-250300-
   North Central Minnesota

CITY           SKY/WX    TMP DP  RH WIND       PRES   REMARKS
BAUDETTE       CLEAR     66  50  56 E7        29.91R
FLAG ISLAND    CLEAR     68  48  49 E5        29.91S
INTL FALLS     CLEAR     61  50  67 E8        29.94R
WASKISH        CLEAR     70  54  56 NE8       29.91R
BIG FORK       CLEAR     64  45  48 N5        29.92R
LONGVILLE      CLOUDY    64  54  68 SE16G26   29.94R
CRANE LAKE     CLEAR     61  54  77 N6        29.97R
ORR            CLEAR     64  48  55 CALM      29.91R
COOK           CLEAR     68  52  56 N3        29.93R
WALKER         FAIR      67  56  68 CALM      29.90R
$$
MNZ012-019>021-037-250300-
   Northeast Minnesota

CITY           SKY/WX    TMP DP  RH WIND       PRES   REMARKS
DULUTH         CLOUDY    57  55  93 E10       29.96R FOG
ELY            HAZE      61  52  72 SE9       29.96R VSB 1
HIBBING        CLEAR     60  49  66 CALM      29.91R
EVELETH        CLEAR     63  54  72 SE7       29.96R
DULUTH HARBOR  RAIN      48  46  93 E13       29.98R VSB 1/2
TWO HARBORS    CLOUDY    57  54  88 NE13      29.96S
SILVER BAY     CLOUDY    55  54  94 NE7       29.98R
GRAND MARAIS     N/A     50  46  86 NE9       29.99R
G MARAIS ARPRT LGT RAIN  55  48  76 E8        30.01R
$$
MNZ029>031-032-039>041-046>048-054>057-064-250300-
   West Central Minnesota

CITY           SKY/WX    TMP DP  RH WIND       PRES   REMARKS
FERGUS FALLS   CLEAR     75  52  43 E6        29.82R
WHEATON        CLEAR     77  52  41 CALM      29.83S
MORRIS         CLEAR     73  55  53 SE8       29.83R
ALEXANDRIA     CLEAR     68  54  60 E8        29.88F
ELBOW LAKE     FAIR      72  57  58 SE14      29.85R
WADENA         CLEAR     66  55  68 SE7       29.88S
GLENWOOD       CLEAR     70  55  60 E8        29.88R
APPLETON       CLEAR     75  55  50 SE9       29.83R
ORTONVILLE     CLEAR     79  39  24 CALM      29.83R
MADISON        CLEAR     79  39  24 CALM      29.83R
WILLMAR        FAIR      70  57  64 SE9       29.87R
$$
MNZ033>034-036-042>043-049>051-058-059-250300-
   Central Minnesota

CITY           SKY/WX    TMP DP  RH WIND       PRES   REMARKS
ST CLOUD       CLEAR     69  58  67 NE5       29.88F
SAUK CENTRE    FAIR      64  55  73 E5        29.88S
PAYNESVILLE    CLEAR     71  56  59 SE5       29.88S
AITKIN         MIX PCPN  63  55  77 E3        29.94R
PINE RIVER     CLOUDY    59  59 100 N3        29.96F
BRAINERD       CLOUDY    62  57  83 E7        29.91F
STAPLES        CLEAR     63  55  77 CALM      29.90S
LONG PRAIRIE   FAIR      64  55  72 NE5       29.89S
LITTLE FALLS   CLEAR     63  54  72 E3        29.89S
LITCHFIELD     CLEAR     70  63  78 SE6       29.88R
BUFFALO        PTCLDY    72  59  64 CALM      29.89R
MAPLE LAKE     PTCLDY    71  62  75 CALM      29.89S
HUTCHINSON     CLEAR     67  61  79 E3        29.88S
$$
MNZ037-044-045-052-053-250300-
   East Central Minnesota

CITY           SKY/WX    TMP DP  RH WIND       PRES   REMARKS
PRINCETON      CLEAR     68  63  83 CALM      29.89S
MORA           MOCLDY    68  55  64 CALM      29.91F
CAMBRIDGE      CLEAR     72  59  64 CALM      29.88S
RUSH CITY      CLEAR     65  62  91 CALM      29.90S
MOOSE LAKE     CLOUDY    59  54  82 NE8       29.92R
HINCKLEY       FAIR      68  61  77 CALM      29.91R
CLOQUET        CLOUDY    55  54  94 E9        29.96R FOG
MCGREGOR       CLOUDY    64  57  77 SW14      29.95R THUNDER
$$
MNZ071>073-080-081-089-090-097-098-250300-
   Southwest Minnesota

CITY           SKY/WX    TMP DP  RH WIND       PRES   REMARKS
MONTEVIDEO     CLEAR     73  54  49 SE7       29.86R
GRANITE FALLS  CLEAR     77  55  46 E8        29.86S
CANBY          CLEAR     80  50  35 CALM      29.84S
MARSHALL       CLEAR     76  52  43 E9        29.84S
REDWOOD FALLS  CLEAR     74  51  44 E10       29.85S
OLIVIA         CLEAR     70  52  52 E9        29.86R
PIPESTONE      CLEAR     77  37  24 S5        29.86S
WINDOM         CLEAR     75  55  50 CALM      29.87R
WORTHINGTON    CLEAR     74  62  66 SE8       29.87F
JACKSON        CLEAR     77  50  38 S3        29.89R
TRACY          CLEAR     79  54  41 S7        29.85S
SLAYTON        CLEAR     74  51  44 SE7       29.87S
$$
MNZ065>067-074>077-082>085-091>093-250300-
   South Central Minnesota

CITY           SKY/WX    TMP DP  RH WIND       PRES   REMARKS
MANKATO        PTCLDY    77  54  44 E9        29.89R
NEW ULM        CLEAR     73  48  40 E8        29.87S
ST JAMES       CLEAR     72  54  53 SE3       29.87R
FAIRMONT       CLEAR     75  54  46 SE13      29.88R
GLENCOE        CLOUDY    68  63  83 E6        29.87F
FARIBAULT      CLOUDY    77  55  47 NE2       29.90R
OWATONNA       CLEAR     73  55  53 SE6       29.90S
WASECA         CLEAR     72  55  56 SE7       29.91R
ALBERT LEA     CLEAR     73  57  56 S5        29.91R
$$
MNZ078>079-086>088-094>096-250300-
   Southeast Minnesota

CITY           SKY/WX    TMP DP  RH WIND       PRES   REMARKS
ROCHESTER      CLEAR     70  57  63 SE7       29.93R
RED WING       PTCLDY    70  57  64 E5        29.89S
STANTON        CLOUDY    76  56  48 SE6       29.89R
DODGE CENTER   CLEAR     72  54  53 S3        29.92S
WINONA         PTCLDY    72  61  68 CALM      29.92R
AUSTIN         CLEAR     73  59  60 CALM      29.91S
PRESTON        CLEAR     75  57  54 SE3       29.94R
$$
ABBREVIATIONS USED IN REMARKS
   TC - TEMPERATURES IN CELSIUS
  WCI - WIND CHILL INDEX
   HX - HEAT INDEX
  VSB - VISIBILITY
$$



USA.gov is the U.S. government's official web portal to all federal, state and local government web resources and services.